Concord, NH

4:06 AM EDT on May 24, 2017 (GMT -0400)
Concord Municipal

Weather History for KCON - September, 2012

Change the Weather History Date:

Tuesday, September 4, 2012

  Actual Average Record
Temperature  
Mean Temperature 62 °F 64 °F  
Max Temperature 65 °F 77 °F 93 °F (1880)
Min Temperature 59 °F 52 °F 34 °F (1987)
Degree Days  
Heating Degree Days 3 3  
Month to date heating degree days 3 11  
Since 1 July heating degree days 9 59  
Cooling Degree Days 0 2  
Month to date cooling degree days 7 11  
Year to date cooling degree days 537 424  
Growing Degree Days 11 (Base 50)    
Moisture  
Dew Point 62 °F    
Average Humidity 92    
Maximum Humidity 100    
Minimum Humidity 84    
Precipitation  
Precipitation 0.45 in 0.11 in 2.06 in (1966)
Month to date precipitation 0.45 0.40  
Year to date precipitation 27.42 26.67  
Snow  
Snow 0.00 in 0.00 in 0.00 in (2002)
Month to date snowfall 0.0 0.0  
Since 1 July snowfall 0.0 0.0  
Since 1 September snowfall 0.0 0.0  
Snow Depth 0.00 in    
Sea Level Pressure  
Sea Level Pressure 30.03 in    
Wind  
Wind Speed 1 mph (ESE)    
Max Wind Speed 5 mph    
Max Gust Speed 6 mph    
Visibility 4 miles    
Events Rain    
T = Trace of Precipitation, MM = Missing Value Source: NWS Daily Summary

Daily Weather History Graph

Daily Weather History Graph

Search for Another Location

Airport or City:

Trip Planner

Search our weather history database for the weather conditions in past years. The results will help you decide how hot, cold, wet, or windy it might be!

Date:

Astronomy

Sep. 04, 2012 Rise Set
Actual Time 6:13 AM EDT 7:14 PM EDT
Civil Twilight 5:44 AM EDT 7:43 PM EDT
Nautical Twilight 5:10 AM EDT 8:18 PM EDT
Astronomical Twilight 4:33 AM EDT 8:54 PM EDT
Moon 8:56 PM EDT (9/4) 10:26 AM EDT (9/4)
Length of Visible Light 13h 59m
Length of Day
13h 00m
Waning Gibbous, 84% of the Moon is Illuminated
Sep 4
Waning Gibbous
Sep 8
Last Quarter
Sep 15
New
Sep 22
First Quarter
Sep 29
Full

Hourly Weather History & Observations

Time (EDT) Temp. Dew Point Humidity Pressure Visibility Wind Dir Wind Speed Gust Speed Precip Events Conditions
12:51 AM 59.0 °F 57.0 °F 93% 30.14 in 10.0 mi ESE 3.5 mph - N/A   Overcast
1:51 AM 61.0 °F 57.0 °F 87% 30.14 in 10.0 mi Calm Calm - N/A   Scattered Clouds
2:51 AM 60.1 °F 55.9 °F 86% 30.13 in 10.0 mi Calm Calm - N/A   Mostly Cloudy
3:51 AM 61.0 °F 57.0 °F 87% 30.12 in 10.0 mi Calm Calm - N/A   Overcast
4:51 AM 61.0 °F 57.0 °F 87% 30.11 in 10.0 mi South 3.5 mph - 0.00 in   Overcast
5:51 AM 61.0 °F 57.9 °F 90% 30.12 in 7.0 mi Calm Calm - 0.01 in Rain Light Rain
6:21 AM 60.8 °F 57.2 °F 88% 30.13 in 2.0 mi Calm Calm - 0.06 in Rain Heavy Rain
6:51 AM 59.0 °F 59.0 °F 100% 30.13 in 6.0 mi Calm Calm - 0.18 in Rain Light Rain
7:51 AM 60.1 °F 59.0 °F 96% 30.13 in 9.0 mi Calm Calm - 0.00 in   Overcast
8:28 AM 60.8 °F 59.0 °F 94% 30.12 in 8.0 mi Calm Calm - 0.01 in Rain Light Rain
8:51 AM 61.0 °F 60.1 °F 97% 30.12 in 4.0 mi Calm Calm - 0.02 in Rain Light Rain
9:13 AM 60.8 °F 60.8 °F 100% 30.11 in 1.8 mi Calm Calm - 0.02 in Rain Light Rain
9:27 AM 60.8 °F 60.8 °F 100% 30.11 in 2.0 mi East 3.5 mph - 0.03 in Rain Light Rain
9:43 AM 60.8 °F 60.8 °F 100% 30.11 in 7.0 mi Calm Calm - 0.03 in Rain Light Rain
9:51 AM 61.0 °F 60.1 °F 97% 30.11 in 4.0 mi Calm Calm - 0.04 in Rain Light Rain
10:46 AM 62.6 °F 60.8 °F 94% 30.10 in 4.0 mi Calm Calm - 0.01 in Rain Light Rain
10:51 AM 62.1 °F 61.0 °F 96% 30.10 in 3.0 mi Calm Calm - 0.01 in Rain Light Rain
11:28 AM 62.6 °F 60.8 °F 94% 30.10 in 4.0 mi Calm Calm - 0.01 in Rain Light Rain
11:51 AM 63.0 °F 62.1 °F 97% 30.09 in 3.0 mi Calm Calm - 0.01 in   Overcast
12:51 PM 64.0 °F 63.0 °F 96% 30.07 in 4.0 mi Calm Calm - 0.00 in Rain Light Rain
1:33 PM 64.4 °F 62.6 °F 94% 30.05 in 10.0 mi SE 4.6 mph - 0.01 in   Overcast
1:51 PM 64.9 °F 63.0 °F 93% 30.04 in 4.0 mi SSE 6.9 mph - 0.01 in   Overcast
2:06 PM 64.4 °F 64.4 °F 100% 30.04 in 4.0 mi Calm Calm - N/A   Overcast
2:51 PM 64.9 °F 64.0 °F 97% 30.02 in 3.0 mi SE 4.6 mph - N/A   Mist
3:01 PM 64.4 °F 64.4 °F 100% 30.02 in 2.5 mi Calm Calm - N/A   Mist
3:15 PM 64.4 °F 64.4 °F 100% 30.01 in 2.0 mi Calm Calm - N/A   Overcast
3:24 PM 64.4 °F 64.4 °F 100% 30.01 in 1.5 mi Calm Calm - N/A   Overcast
3:51 PM 64.9 °F 64.0 °F 97% 30.00 in 2.0 mi East 4.6 mph - 0.00 in Rain Light Rain
4:20 PM 64.4 °F 64.4 °F 100% 29.99 in 1.8 mi East 3.5 mph - N/A   Overcast
4:33 PM 64.4 °F 64.4 °F 100% 29.99 in 1.2 mi Calm Calm - N/A   Overcast
4:51 PM 64.9 °F 64.9 °F 100% 29.99 in 1.5 mi Calm Calm - N/A   Overcast
5:00 PM 64.4 °F 64.4 °F 100% 29.99 in 1.2 mi East 3.5 mph - N/A   Overcast
5:22 PM 64.4 °F 64.4 °F 100% 29.98 in 1.5 mi East 5.8 mph - N/A   Overcast
5:26 PM 64.4 °F 64.4 °F 100% 29.98 in 2.0 mi Calm Calm - N/A   Overcast
5:35 PM 64.4 °F 64.4 °F 100% 29.98 in 5.0 mi East 3.5 mph - N/A   Overcast
5:51 PM 64.9 °F 64.0 °F 97% 29.98 in 8.0 mi Calm Calm - N/A   Overcast
6:22 PM 64.4 °F 64.4 °F 100% 29.97 in 2.5 mi ENE 3.5 mph - N/A   Overcast
6:51 PM 64.9 °F 64.0 °F 97% 29.96 in 2.5 mi Calm Calm - N/A   Overcast
6:56 PM 64.4 °F 64.4 °F 100% 29.96 in 3.0 mi Calm Calm - N/A   Overcast
8:58 PM 64.4 °F 64.4 °F 100% 29.94 in 1.8 mi NNE 3.5 mph - 0.00 in   Mist
9:19 PM 64.4 °F 64.4 °F 100% 29.93 in 1.5 mi Calm Calm - 0.00 in   Overcast
9:49 PM 64.4 °F 64.4 °F 100% 29.92 in 2.0 mi Calm Calm - 0.00 in Rain Light Rain
9:51 PM 64.0 °F 64.0 °F 100% 29.92 in 1.8 mi Calm Calm - 0.00 in Rain Light Rain
10:07 PM 64.4 °F 64.4 °F 100% 29.91 in 3.0 mi Calm Calm - 0.03 in Rain Light Rain
10:51 PM 64.0 °F 64.0 °F 100% 29.89 in 3.0 mi Calm Calm - 0.05 in Rain Rain
10:56 PM 64.4 °F 64.4 °F 100% 29.89 in 1.8 mi Calm Calm - 0.01 in Rain Rain
11:07 PM 64.4 °F 64.4 °F 100% 29.89 in 3.0 mi Calm Calm - 0.10 in Rain Light Rain
11:19 PM 64.4 °F 64.4 °F 100% 29.89 in 7.0 mi Calm Calm - 0.10 in Rain Light Rain
11:51 PM 64.9 °F 64.0 °F 97% 29.87 in 5.0 mi Calm Calm - 0.12 in Rain Light Rain